Theta_e
305 306 306 304 303 302 301 301 301 301 302 302 303 304 305 306 306 307 307 307 308 308 308 308 308 310 311 311 310 309 311 312 315 313 315 315 308 311 313 316 318 319 331 345 349 347 346 346 347 348 347 349 349 348 352 352 355 356 360 359 353 355 355 353 356 350 347 353 358 357 355 356 357 354 352 353 354 353 353 352 351 350 350 350 351 350 349 349
304 305 305 304 303 303 302 301 301 301 302 303 304 305 305 307 308 309 310 309 309 309 308 309 309 311 311 312 310 310 313 314 315 315 319 315 315 314 310 315 317 323 342 349 346 346 344 343 345 345 345 346 347 348 352 354 356 358 360 357 354 358 357 353 354 351 350 352 356 356 355 355 355 355 353 356 356 354 355 354 352 351 351 350 351 351 350 349
303 304 304 304 304 303 302 301 301 301 302 303 305 306 307 308 309 311 311 310 310 309 309 310 310 311 312 312 311 312 315 314 318 322 324 321 321 320 313 313 317 328 344 346 344 346 343 343 345 344 344 345 345 347 352 355 356 357 358 358 357 357 356 353 352 353 351 351 356 356 354 355 353 353 353 356 358 356 357 355 353 353 351 350 350 350 350 348
302 303 303 304 304 304 302 302 301 302 302 304 305 307 308 310 310 311 311 311 310 309 310 310 311 312 312 311 311 314 314 319 321 321 325 322 319 324 317 313 319 330 343 347 345 345 344 345 345 343 343 345 345 347 352 355 356 356 356 359 358 356 356 354 352 352 351 349 353 355 355 354 352 352 353 355 358 358 357 354 353 353 351 350 348 349 350 349
302 302 303 304 304 305 303 302 302 302 303 304 307 308 309 310 310 310 310 310 309 309 310 310 311 312 311 311 312 314 315 321 318 317 323 321 318 324 318 313 320 331 344 347 343 343 345 345 342 341 341 345 346 348 351 352 354 356 356 357 357 356 357 355 351 351 351 349 351 354 355 354 352 352 352 355 358 358 356 352 352 351 349 349 348 348 350 349
302 302 303 304 305 305 304 302 302 302 303 305 308 309 310 310 309 309 309 308 308 309 309 310 312 312 311 311 313 314 315 312 315 316 322 323 320 323 318 314 322 337 345 344 342 343 344 341 339 339 339 343 346 348 349 350 352 355 356 355 355 356 356 356 353 353 351 349 350 352 353 351 352 353 351 354 355 354 352 352 351 350 350 350 349 348 347 346
302 302 303 304 305 306 304 303 302 302 304 306 309 310 310 309 309 309 308 308 308 308 308 310 312 311 310 311 313 314 313 310 313 319 325 323 323 324 316 315 326 341 344 341 341 341 340 339 337 336 338 341 345 348 347 348 351 354 356 354 354 354 354 354 352 352 350 349 349 348 350 351 353 353 352 353 353 351 351 350 350 350 352 350 348 347 346 347
302 302 303 304 305 306 305 303 303 303 304 307 310 310 309 309 308 309 308 308 307 308 309 311 312 311 311 314 316 313 311 312 315 322 325 324 327 322 316 323 334 341 341 339 339 340 338 337 336 334 336 338 341 346 345 347 351 352 354 353 352 352 351 350 348 348 346 346 346 345 349 349 351 352 351 353 351 351 351 350 350 350 351 349 347 347 347 348
302 302 303 305 305 306 306 304 303 303 306 309 310 310 309 309 309 309 308 307 307 309 311 312 312 310 311 316 315 308 310 316 318 321 321 325 328 322 321 330 337 339 338 337 337 338 336 335 334 332 333 335 339 344 345 346 348 350 353 351 350 351 349 348 347 347 345 344 343 344 347 347 348 350 350 352 351 351 351 349 349 349 349 349 348 348 347 347
302 302 303 304 306 306 306 305 303 304 307 309 310 309 309 308 309 309 308 307 309 312 313 312 311 311 312 316 312 306 313 318 318 317 316 321 324 326 330 333 335 337 336 335 335 335 333 332 333 331 331 334 337 342 344 344 344 344 347 347 348 347 345 344 343 342 342 341 341 342 344 344 346 349 350 350 351 351 351 351 350 350 350 350 348 348 348 348
302 302 303 304 306 307 307 305 304 305 308 310 310 309 309 308 308 308 307 309 312 314 313 311 311 312 313 314 310 307 313 316 317 315 314 318 321 325 334 336 334 334 333 332 332 333 330 330 331 328 327 331 334 338 342 341 340 341 341 342 342 340 339 337 337 337 338 340 340 341 344 344 345 348 349 351 351 351 352 352 350 350 351 349 349 349 349 349
301 302 302 304 306 307 307 305 304 305 308 309 308 309 308 307 307 307 309 312 314 313 312 312 311 312 314 313 310 309 311 313 314 314 315 318 319 320 329 336 334 330 331 330 330 330 328 329 330 324 323 329 331 332 334 338 338 339 339 341 340 338 338 337 336 336 337 339 339 341 341 343 346 346 348 352 352 352 352 352 351 351 350 349 349 348 348 350
301 301 302 304 306 307 307 306 304 306 308 307 307 307 307 306 306 308 312 315 314 313 313 312 312 312 313 313 311 312 314 316 315 314 316 316 317 320 325 333 335 329 327 327 328 328 325 328 328 324 323 328 331 326 325 332 337 337 337 339 340 337 337 337 336 335 338 338 339 341 335 339 348 345 348 353 352 353 353 354 352 351 351 350 350 349 349 350
301 301 302 303 305 307 307 305 305 307 307 306 306 306 306 306 307 311 315 314 312 312 313 313 313 314 314 313 313 314 316 320 317 312 314 314 318 324 324 331 333 327 324 325 325 325 324 327 327 324 323 325 328 323 321 327 331 335 334 334 337 331 331 337 337 336 339 337 339 342 332 336 346 344 350 353 352 354 354 354 352 351 351 350 350 349 348 349
301 301 302 303 305 306 306 305 306 306 306 306 306 306 306 306 308 314 315 312 311 313 314 314 315 316 316 315 315 314 317 319 316 311 312 314 320 326 325 328 330 323 322 323 323 324 323 325 326 325 323 321 324 323 323 325 327 331 327 326 332 328 330 337 336 336 340 338 340 340 332 337 344 345 351 353 352 354 354 355 353 352 352 350 350 349 348 349
301 301 302 303 305 306 306 306 306 306 306 306 306 306 307 307 311 316 314 311 313 315 315 316 317 317 317 315 314 315 316 314 313 311 311 312 316 324 326 326 326 321 321 321 322 325 321 323 325 323 323 322 322 324 323 321 323 328 324 321 327 327 328 333 335 335 337 338 340 339 336 339 342 346 352 352 352 355 355 355 354 352 352 351 350 349 349 349
301 302 302 304 305 306 306 305 306 307 307 307 307 306 308 309 313 316 313 312 314 316 317 319 318 318 319 314 312 313 312 310 310 310 310 310 310 320 326 325 324 322 321 320 320 324 322 322 323 322 322 321 321 324 320 316 317 323 324 321 325 329 326 328 333 335 334 336 340 341 340 341 341 349 353 352 353 354 356 355 353 352 351 351 350 349 349 349
301 302 303 304 305 306 306 305 306 307 308 308 307 307 309 311 315 317 313 311 315 317 318 318 317 319 317 312 310 310 309 309 310 308 310 310 308 318 327 324 323 321 320 319 319 322 321 321 321 321 322 320 322 322 316 316 317 319 322 321 323 327 327 328 332 333 333 335 338 340 341 342 342 349 353 353 352 354 355 355 354 353 351 351 351 349 350 350
302 303 304 304 305 306 306 306 306 307 308 309 307 307 309 310 313 316 312 308 311 314 314 313 313 313 311 310 309 309 309 308 309 308 311 312 311 320 327 324 322 320 320 319 318 320 321 321 321 320 320 321 321 320 319 321 323 323 325 324 322 322 325 330 332 332 332 333 336 337 338 340 340 345 353 353 353 354 355 355 355 354 352 351 351 350 350 351
304 304 304 304 305 306 306 306 307 307 308 309 309 308 309 310 310 311 310 307 305 305 306 306 307 308 309 310 309 309 309 308 308 308 311 314 316 324 326 322 321 319 319 319 318 319 320 320 320 319 320 321 321 321 321 324 325 326 327 326 325 323 324 331 333 331 332 331 333 335 336 337 337 341 350 353 353 354 354 356 356 354 353 352 351 350 351 351
304 304 304 305 306 307 306 306 307 307 308 309 309 308 309 310 310 310 309 307 305 304 305 305 305 307 308 308 308 307 308 308 309 309 310 313 321 326 325 322 321 320 319 319 318 318 319 319 319 320 320 321 322 321 321 322 324 326 326 325 325 325 325 330 331 329 329 329 331 335 334 335 336 337 347 353 354 355 354 355 356 355 354 353 352 351 351 351
305 304 304 305 307 307 307 307 308 308 308 309 309 308 308 308 310 310 307 306 306 304 305 305 305 306 307 307 308 307 307 309 310 311 309 313 322 325 324 322 320 320 319 318 319 318 318 318 319 319 318 318 320 320 321 321 322 324 325 324 323 325 327 328 329 327 328 328 329 334 331 333 337 335 344 353 354 354 353 354 354 355 355 354 352 352 351 351
305 304 305 307 307 307 307 307 309 309 308 309 309 308 308 308 310 310 307 306 306 305 306 306 307 308 308 308 307 307 308 309 310 310 310 314 322 322 323 325 322 320 319 317 319 318 317 318 318 318 317 317 318 319 320 320 320 321 323 322 321 325 326 323 325 326 327 327 328 331 329 332 336 335 341 350 352 353 353 352 354 354 354 354 353 352 352 351
306 304 305 307 308 308 308 307 309 310 309 308 308 308 309 309 311 310 306 306 306 306 307 307 308 308 307 307 307 307 309 308 308 310 310 313 318 319 322 325 324 322 319 317 318 318 317 318 318 317 317 317 317 317 319 318 318 319 321 321 322 326 325 323 324 326 326 326 327 327 324 325 333 336 338 346 351 353 354 353 353 353 353 353 352 352 351 351
306 305 305 308 309 309 309 308 310 311 309 309 308 309 309 309 311 310 307 307 307 308 308 307 308 308 306 307 308 306 308 309 309 310 310 310 312 315 320 323 324 325 322 318 318 317 318 319 318 317 317 316 316 317 318 318 315 316 319 321 322 326 328 327 328 327 324 324 327 325 319 321 331 334 336 345 353 354 355 354 354 353 354 353 353 353 351 351
306 305 305 308 310 309 309 309 310 310 309 309 309 309 309 309 311 309 308 309 309 309 309 308 308 308 306 308 307 306 308 310 310 310 310 312 311 312 317 321 322 324 323 320 319 319 318 319 319 318 318 317 317 316 317 318 315 313 318 321 322 325 327 327 327 325 321 321 326 325 319 319 325 329 334 345 352 354 354 354 355 354 354 353 353 353 352 351
306 305 305 308 309 309 310 310 310 309 309 309 308 308 308 309 310 309 308 310 310 309 308 307 307 306 307 308 307 307 309 310 310 311 311 312 312 310 314 319 322 322 322 321 321 321 320 319 319 320 319 319 318 316 317 319 315 314 320 323 323 324 326 328 327 324 323 323 326 327 323 319 319 325 337 344 347 352 355 355 355 355 354 353 353 352 352 351
307 305 305 308 309 309 310 309 309 309 308 308 308 308 308 309 309 308 308 309 309 308 306 306 307 306 307 307 307 307 308 308 311 312 312 312 312 310 311 316 321 322 321 322 322 322 321 321 320 320 321 320 319 319 319 319 316 318 324 324 324 325 326 328 327 324 324 324 323 324 323 319 317 324 337 343 341 346 355 356 355 354 353 353 352 352 351 351
307 305 304 308 309 308 309 308 308 308 308 307 308 308 307 307 308 308 308 308 308 308 306 306 306 306 306 307 307 307 308 308 310 310 312 312 312 311 311 312 316 319 321 322 323 322 322 322 321 320 320 320 321 320 320 320 319 320 324 325 325 326 328 328 328 324 323 324 323 323 322 320 319 320 329 337 334 337 349 354 354 354 353 353 352 351 351 350
307 305 304 307 310 309 308 308 307 308 307 308 308 307 306 307 308 309 308 307 307 307 305 306 306 305 306 306 307 307 307 308 309 310 313 312 312 312 312 312 313 315 318 320 322 323 322 322 322 322 322 321 321 321 321 320 320 321 323 325 324 326 327 328 327 324 323 323 323 322 321 321 320 320 324 332 333 335 344 348 352 354 352 352 352 350 351 351
307 305 305 308 309 308 308 308 307 308 308 308 308 306 306 308 308 308 308 306 306 306 305 305 305 305 305 306 306 307 307 308 309 311 313 312 312 312 312 313 313 315 316 317 319 320 321 322 322 322 322 321 321 321 322 321 321 322 323 322 321 322 322 322 322 322 323 322 321 321 322 321 320 321 326 333 335 335 338 342 348 352 352 353 351 350 350 350
306 305 306 308 308 307 307 307 307 308 308 308 306 306 307 308 308 308 307 305 306 306 305 305 305 305 305 306 306 306 306 308 310 312 312 313 313 311 311 312 312 315 317 316 316 318 319 322 322 322 322 322 322 321 321 322 322 322 322 320 318 320 321 320 320 320 321 319 319 321 321 318 319 323 328 333 332 332 334 336 340 347 351 353 352 350 349 349
306 305 307 309 307 306 306 307 307 308 308 307 307 307 307 307 308 308 306 306 306 305 304 305 304 304 305 306 306 306 307 308 310 312 312 312 313 312 311 310 310 313 316 316 315 315 318 320 321 322 322 322 322 321 320 320 322 322 319 318 318 320 322 322 320 320 319 317 317 319 320 317 318 323 329 330 329 329 333 334 335 341 348 352 352 351 349 349
305 305 308 309 306 306 306 306 307 308 307 307 307 308 307 306 309 308 305 305 305 304 304 304 304 305 305 305 305 306 307 308 309 311 312 312 313 313 311 310 309 311 313 315 316 315 317 319 319 321 320 319 322 322 321 322 323 323 322 321 319 318 320 321 319 319 318 316 316 317 318 316 316 322 328 328 328 329 330 331 334 339 345 349 350 350 349 349
305 305 308 309 306 306 306 306 307 307 308 308 308 309 308 307 307 306 305 305 305 304 304 303 304 305 305 305 305 306 307 307 308 310 311 312 312 312 311 310 309 310 312 316 318 316 318 318 317 318 317 317 320 320 322 323 321 324 326 323 320 320 320 319 318 318 317 315 315 316 317 318 321 326 328 327 328 329 329 330 332 337 342 346 347 349 349 349
305 305 309 309 307 306 306 306 307 307 308 308 309 310 309 307 306 305 306 305 304 304 304 304 305 305 305 305 305 305 306 307 307 310 310 311 311 311 310 310 309 309 310 314 316 316 318 318 317 317 317 319 319 318 320 321 320 322 323 320 323 326 323 318 317 318 318 317 318 316 315 318 321 323 325 326 327 327 328 329 330 333 340 345 347 348 349 349
305 306 309 308 306 306 307 307 307 307 308 309 311 310 308 306 305 305 305 305 303 303 304 305 305 305 305 305 305 305 306 307 306 308 310 310 311 310 309 309 309 308 308 310 313 314 315 318 318 319 320 319 318 318 319 320 321 321 319 320 325 326 324 321 319 319 319 318 318 315 313 314 314 318 325 327 327 327 328 328 329 332 339 343 345 347 349 350
304 306 308 308 306 306 307 307 307 308 309 312 312 310 307 307 306 306 306 304 303 304 305 305 305 305 305 305 305 305 306 307 306 308 309 310 311 310 309 309 308 308 308 309 312 312 314 319 319 318 319 318 317 318 320 320 321 322 321 324 323 320 320 321 320 320 319 318 318 316 314 314 312 315 322 325 326 327 329 330 329 330 337 342 342 346 349 349
305 307 309 307 306 307 307 306 307 309 311 311 312 309 306 306 307 306 306 304 304 304 305 305 305 305 305 305 305 305 306 307 306 307 308 309 310 309 309 308 308 308 308 309 311 312 314 320 321 317 316 317 317 319 319 319 321 322 322 325 324 320 319 320 320 320 318 319 319 317 315 314 316 319 322 324 328 329 330 334 334 330 334 340 342 344 348 349
306 308 308 306 306 307 307 307 309 311 310 309 309 309 307 307 307 306 306 305 304 304 305 305 305 305 305 305 305 305 306 307 307 307 308 309 309 309 309 308 308 308 308 309 311 313 315 318 320 319 317 316 318 319 318 318 320 320 320 321 321 321 321 321 321 319 318 319 319 319 317 314 319 326 325 325 330 331 331 336 338 334 332 336 341 344 346 348
306 309 309 306 306 307 308 310 310 309 308 309 309 309 309 309 307 307 307 306 305 305 304 304 305 306 305 305 306 306 307 308 308 308 308 309 309 309 309 308 308 308 308 311 312 313 315 317 317 318 317 316 318 318 317 316 316 317 319 319 319 320 319 320 320 319 317 317 318 319 317 315 321 330 328 324 327 329 331 334 335 335 333 334 339 342 346 348
306 309 309 306 306 307 308 311 311 309 310 310 310 309 309 309 307 307 307 307 306 306 305 305 305 306 306 306 306 306 307 308 309 308 308 309 308 309 309 308 308 308 308 311 314 313 314 316 317 317 316 316 317 316 315 315 315 316 318 318 319 320 318 318 320 320 318 317 318 317 316 319 325 332 330 329 329 327 330 333 332 332 334 336 337 339 343 347
306 308 307 306 306 307 309 310 310 311 310 309 309 309 308 308 308 307 307 307 307 307 306 306 306 306 307 306 306 306 306 307 309 309 309 309 309 308 309 308 307 308 309 312 314 313 313 314 316 317 317 316 316 316 316 316 317 318 318 317 317 318 317 318 320 320 319 318 317 318 318 320 327 333 332 330 331 327 326 328 328 330 333 334 337 339 344 347
304 305 306 306 306 307 309 310 310 311 310 309 309 308 308 308 308 307 307 307 308 307 307 306 306 306 307 306 306 306 306 307 308 309 309 309 309 308 308 308 307 308 309 311 313 311 312 314 315 317 319 319 318 320 319 318 317 316 316 316 315 316 316 317 320 321 320 317 317 318 318 319 327 339 337 334 334 330 327 325 324 327 330 332 335 338 344 350
305 306 306 306 306 307 308 307 308 309 310 310 309 309 308 308 307 307 307 307 308 307 307 307 307 307 307 307 307 306 306 306 307 308 308 308 309 309 308 308 307 307 309 312 311 309 310 313 314 315 319 321 321 321 318 317 316 315 315 315 315 315 315 317 322 322 320 319 318 317 317 319 328 338 337 334 334 333 332 330 325 326 329 333 336 339 343 349
306 308 308 307 305 305 305 305 306 308 308 309 310 309 309 309 308 307 307 307 307 307 307 307 307 308 308 308 308 307 307 306 306 307 307 307 308 308 308 308 307 307 310 311 310 308 309 312 313 314 316 317 318 317 313 312 314 314 315 315 314 314 314 317 321 322 322 322 319 318 319 318 322 331 335 333 333 333 336 333 329 331 333 334 339 343 344 345
306 307 307 307 307 306 306 305 305 306 307 308 310 310 309 309 309 308 308 308 308 307 307 308 308 309 309 309 309 308 307 307 307 306 307 307 307 306 307 308 307 308 310 310 308 308 309 310 310 312 313 312 313 313 311 311 313 313 314 314 314 315 315 316 319 321 323 323 320 323 327 322 321 326 331 333 335 335 334 332 332 335 335 333 338 343 342 343
306 306 304 305 307 307 307 306 305 306 306 307 309 310 308 309 309 309 308 308 308 307 308 309 309 309 309 309 309 309 309 308 308 307 308 308 307 307 307 307 307 308 310 309 307 308 309 309 309 309 310 310 310 311 310 311 312 312 313 314 314 314 315 316 318 318 321 323 323 328 333 329 327 326 327 334 340 338 335 333 330 330 331 329 333 336 335 337
306 305 305 305 306 306 306 306 305 305 307 309 310 309 308 309 309 308 308 308 309 308 308 310 310 309 309 309 309 310 309 309 308 308 308 308 307 308 308 307 307 308 309 308 308 309 308 310 311 310 310 311 310 310 311 311 312 313 313 313 314 314 315 316 318 319 322 324 324 327 331 331 329 330 333 339 344 340 336 335 333 333 333 332 332 332 330 329
306 306 307 306 306 306 306 306 305 306 307 309 309 308 307 308 308 308 308 308 309 309 308 310 310 309 309 309 309 310 309 308 309 309 308 308 308 308 308 308 308 308 309 308 308 308 308 309 311 311 311 312 311 311 311 311 313 313 313 314 314 315 316 318 324 331 335 332 328 326 328 330 334 339 342 344 345 342 340 345 348 349 347 345 341 336 332 330
306 306 307 307 308 308 307 306 305 306 307 308 308 308 307 307 308 308 308 308 308 309 309 309 309 309 309 309 309 309 309 308 308 308 308 308 308 308 308 308 308 308 309 308 308 308 308 308 309 309 311 313 312 312 312 312 313 313 314 315 315 317 323 327 333 339 342 341 336 330 328 333 340 343 344 347 347 345 345 356 361 358 357 357 354 349 344 337
306 306 306 307 309 308 307 306 305 306 307 307 307 307 307 306 307 307 309 308 307 308 308 308 308 309 309 310 309 309 308 308 308 308 308 308 308 308 307 307 307 307 308 308 308 308 309 309 308 309 312 313 311 311 312 313 315 317 318 318 318 321 327 333 336 339 339 340 340 336 334 338 341 341 343 347 349 348 350 357 362 360 360 360 359 358 355 348
Wind_Speed
32 30 30 29 29 28 27 27 26 25 24 23 22 20 17 16 15 15 15 14 13 13 15 16 16 15 14 13 12 12 11 10 9 7 11 18 20 14 9 6 16 21 23 25 26 24 19 17 17 18 16 10 5 6 8 6 4 4 3 3 4 4 3 2 1 1 2 0 6 9 11 10 8 8 6 7 8 10 9 5 7 6 6 10 15 23 28 29
33 32 32 31 30 29 28 27 26 25 25 24 22 20 18 16 16 16 15 14 13 13 14 15 16 15 13 11 11 10 8 8 9 11 15 17 18 15 15 10 19 27 28 27 29 28 21 17 18 17 12 8 6 7 8 6 5 5 4 4 5 4 2 1 1 2 4 2 5 9 10 9 9 10 8 8 9 11 9 7 8 9 11 14 20 27 28 29
35 35 34 33 32 30 29 27 26 25 25 24 22 21 19 17 17 16 15 14 13 12 12 14 15 14 12 10 8 7 7 6 7 10 6 12 13 13 17 15 23 31 29 28 30 27 24 23 23 18 11 7 6 7 8 7 6 6 5 6 5 5 4 2 4 5 4 2 5 8 8 7 8 9 8 8 10 11 10 9 10 11 13 16 21 27 28 29
36 36 35 34 33 31 30 28 26 25 24 23 21 21 19 19 18 16 16 14 13 11 12 13 13 13 10 8 5 5 5 5 2 2 6 14 17 9 17 20 26 33 27 24 22 16 19 24 21 15 10 6 5 7 9 8 6 5 7 6 2 2 4 1 3 3 3 2 4 6 7 7 8 8 8 9 10 8 10 12 13 15 18 19 21 25 29 29
37 37 37 36 34 32 30 28 27 25 23 22 20 20 19 19 18 17 15 13 12 11 11 12 12 11 8 5 3 3 3 2 1 3 14 17 15 7 16 23 29 33 25 21 17 13 18 21 16 10 7 6 7 7 9 11 7 5 9 9 4 2 2 2 3 3 5 2 3 7 8 7 8 9 9 12 11 6 8 13 14 17 21 23 24 25 27 26
39 39 38 37 35 32 30 28 27 24 22 21 20 20 19 18 18 17 14 13 13 12 12 12 11 8 5 3 2 2 2 1 4 10 19 14 9 4 17 25 31 32 24 22 18 16 18 16 13 9 5 5 10 9 6 12 10 6 8 9 9 7 7 5 6 7 7 4 2 4 6 6 9 9 10 15 12 1 5 12 14 16 20 24 25 25 25 24
40 40 40 38 36 33 31 28 27 24 21 19 18 19 19 18 17 17 15 14 15 15 13 11 9 5 2 2 1 1 1 5 9 16 18 8 5 2 20 26 33 32 24 23 20 17 17 16 14 9 8 6 9 9 4 10 12 9 8 8 8 8 9 8 8 10 9 7 7 4 5 8 11 9 9 15 10 2 8 14 16 17 20 23 23 22 23 23
41 41 41 40 37 34 32 29 27 23 20 18 17 18 18 19 18 18 17 16 17 16 12 8 5 2 1 2 1 2 2 4 9 18 19 9 3 10 24 26 33 32 25 26 23 20 17 17 15 9 10 6 6 9 5 8 12 14 11 6 6 6 7 7 8 9 9 8 7 5 7 10 13 8 8 14 9 6 11 15 17 18 19 21 21 22 21 20
42 42 42 41 38 35 32 29 27 23 19 17 16 17 17 18 19 19 17 18 18 13 7 3 2 1 1 1 1 4 1 3 9 19 22 15 4 18 27 27 33 28 23 26 23 22 16 14 15 8 8 7 7 10 8 7 7 11 13 7 7 8 8 9 10 11 10 7 6 7 9 11 12 8 7 13 10 11 14 17 18 19 19 19 19 21 20 20
43 43 43 41 39 36 32 30 27 23 19 16 16 16 17 18 20 19 17 18 14 6 2 3 2 2 2 1 2 4 1 5 6 14 19 16 6 18 22 26 36 27 21 22 21 23 14 12 14 5 3 6 7 8 10 9 2 4 9 10 12 13 12 11 12 12 11 9 9 10 11 11 10 9 8 10 14 15 16 17 18 19 19 19 18 18 19 20
43 43 43 42 40 36 33 31 27 23 19 17 16 17 18 19 20 18 17 13 5 2 3 3 2 2 3 1 3 3 2 4 5 14 17 11 2 15 19 24 32 27 22 20 20 22 14 12 13 5 2 5 6 6 9 8 4 3 5 8 10 11 12 12 12 11 8 7 9 10 12 10 9 11 9 10 16 17 18 18 19 19 17 18 18 18 16 17
43 43 43 42 40 37 33 31 28 23 18 18 18 18 20 20 18 15 11 5 3 4 3 2 1 3 2 2 5 6 4 7 11 14 14 9 4 12 19 24 24 20 22 19 20 21 13 14 16 9 3 5 7 4 6 9 7 7 7 8 8 9 12 13 12 9 7 6 6 6 9 8 10 11 8 13 16 17 18 18 18 17 16 16 17 16 14 16
43 43 43 42 40 37 33 30 28 22 19 20 19 20 22 19 15 9 4 4 6 5 3 1 2 4 1 2 6 6 6 7 6 9 13 9 2 10 17 24 19 11 14 14 17 18 11 14 16 8 2 4 6 1 2 7 8 8 7 7 8 8 9 7 6 8 9 8 6 5 6 5 9 11 10 15 17 17 17 17 17 16 14 15 15 15 15 17
44 44 43 42 41 38 33 30 27 22 21 21 21 23 22 15 9 4 4 6 8 6 2 1 2 5 1 5 6 5 8 5 3 11 13 9 3 7 11 20 19 8 8 9 12 13 10 12 9 4 2 1 1 1 2 4 6 7 5 5 6 5 5 1 2 5 8 6 9 9 6 5 5 8 14 15 18 19 16 17 16 15 14 14 15 15 16 17
43 43 44 42 41 38 33 29 24 22 22 21 22 22 17 10 6 3 4 9 11 6 1 2 4 3 1 5 5 5 7 4 5 14 11 4 3 5 8 17 17 7 8 9 13 12 7 10 7 4 4 1 2 4 3 2 3 5 5 6 6 5 7 4 2 5 6 3 9 11 6 6 6 6 15 15 18 20 17 17 17 16 16 15 15 15 16 16
43 44 43 42 41 38 33 27 22 22 22 21 22 17 12 8 4 4 4 12 11 4 1 2 3 1 1 2 5 3 3 5 13 17 8 3 2 4 10 17 14 7 7 7 13 13 5 8 8 4 3 3 4 4 3 3 4 5 6 7 6 7 9 6 2 6 9 5 8 12 6 5 4 6 15 15 18 19 16 17 18 17 17 16 15 14 15 15
43 43 43 42 40 37 31 24 21 22 22 22 18 11 12 7 5 3 5 12 8 2 1 1 3 1 2 3 6 4 5 12 17 17 13 12 8 8 13 15 11 9 7 7 12 14 6 6 5 3 4 5 5 4 5 8 7 6 7 7 5 7 9 5 2 3 7 8 8 11 11 9 4 5 13 16 18 18 15 17 18 17 16 15 14 14 15 16
42 43 43 41 40 36 29 21 19 21 22 23 14 9 14 7 4 1 5 11 5 4 2 2 2 1 2 6 9 9 13 18 19 18 14 9 5 14 15 12 11 13 10 6 8 11 7 5 4 4 6 7 7 8 9 7 7 9 8 7 5 6 8 7 4 0 2 5 8 10 11 11 7 3 10 14 17 18 17 16 17 17 17 16 15 15 15 17
42 43 43 41 39 35 26 18 17 18 21 24 12 6 13 8 2 1 6 11 4 2 2 2 1 1 4 10 11 14 18 17 14 12 6 3 10 15 13 11 13 14 11 7 7 9 7 5 5 7 8 12 12 13 11 1 1 8 7 6 6 7 9 7 5 3 2 3 6 9 10 11 9 6 9 12 15 15 14 13 13 14 15 15 15 15 16 17
42 43 43 41 38 32 24 16 16 16 18 24 15 3 7 8 1 1 7 10 2 0 5 4 1 2 7 9 11 18 17 9 5 3 0 6 15 15 10 10 12 10 9 10 9 8 8 7 9 12 12 13 13 12 11 2 2 3 5 7 8 8 10 6 3 4 4 5 7 6 8 10 9 8 10 12 14 13 13 13 13 14 15 15 16 17 17 17
42 43 42 40 36 29 20 13 15 15 14 22 19 7 4 6 4 4 7 7 3 2 7 7 4 7 9 10 13 15 9 3 4 2 1 6 15 14 8 10 12 9 9 10 8 6 8 9 13 15 9 6 9 10 9 8 7 4 3 6 7 9 9 4 1 4 4 4 6 4 7 11 9 7 8 11 13 15 16 16 15 17 16 15 17 18 17 15
42 43 42 39 32 25 16 10 15 15 12 18 19 10 4 5 5 5 4 5 5 2 5 6 4 6 10 11 9 6 2 3 6 5 5 4 11 8 8 10 10 9 10 10 7 6 8 12 15 12 7 5 6 9 10 12 13 9 4 4 5 5 5 6 3 4 5 5 6 6 9 12 8 5 8 13 15 15 17 18 17 19 18 16 17 18 16 16
42 42 41 36 28 22 12 7 15 16 12 15 14 9 4 3 9 6 4 4 5 3 2 2 2 4 6 5 3 4 2 3 3 6 8 2 8 5 7 11 10 9 11 12 10 9 8 10 12 9 9 10 9 9 12 12 11 11 8 6 5 4 4 5 2 2 3 5 7 7 7 10 7 3 7 13 15 13 14 16 14 15 17 16 17 16 17 19
41 41 39 32 24 20 10 5 15 18 12 9 9 9 6 10 13 4 4 2 3 3 2 1 2 3 6 6 3 4 3 1 2 6 8 0 3 2 6 10 10 9 11 15 15 12 7 3 7 12 11 14 12 11 13 10 9 12 13 11 7 5 5 4 2 5 6 5 6 6 7 9 8 7 8 9 12 12 11 12 13 13 14 13 14 15 17 19
40 39 37 29 22 18 8 4 13 17 9 4 5 12 17 18 10 3 4 1 1 2 1 1 1 2 8 7 3 4 3 2 3 4 5 3 2 1 4 6 8 8 11 15 14 12 9 4 10 15 14 15 14 12 13 11 8 10 15 16 12 8 7 6 5 6 5 5 3 2 7 8 5 9 10 6 9 12 11 13 16 15 14 14 14 16 16 17
39 37 34 26 20 16 6 2 11 16 6 2 8 21 23 18 6 5 3 1 0 1 1 2 2 5 11 7 5 4 2 0 3 4 3 4 4 4 4 4 6 7 10 12 8 6 8 8 10 13 15 17 15 12 14 13 8 8 10 14 15 12 9 9 8 5 4 4 2 2 7 7 3 7 8 6 9 13 12 14 17 15 14 15 15 15 16 17
37 36 31 22 17 15 6 0 10 12 3 6 19 25 23 16 2 7 2 1 0 2 3 4 3 6 11 10 10 4 2 6 8 3 6 8 4 3 5 5 6 6 7 8 6 5 8 11 12 11 12 14 13 12 14 15 11 8 4 9 14 14 13 11 9 7 6 5 6 7 6 6 7 5 5 7 9 11 12 15 16 14 15 17 16 16 17 18
37 35 29 18 13 12 7 3 7 7 7 17 24 24 19 7 6 6 2 2 0 2 2 3 4 6 9 9 10 6 1 8 6 5 13 11 2 2 6 7 8 9 10 10 8 5 9 14 14 13 11 10 11 11 14 17 13 7 4 8 11 13 15 12 9 8 6 5 8 9 6 5 9 4 5 6 9 10 12 15 14 14 17 18 17 18 18 18
37 35 27 16 9 9 9 5 5 10 19 25 25 22 11 4 7 2 2 2 1 3 1 3 4 6 10 7 7 8 4 5 4 8 12 7 3 1 4 4 4 8 12 14 12 4 6 12 14 14 12 9 10 11 12 18 14 5 5 7 10 11 12 11 10 8 6 8 11 11 9 7 10 7 5 6 8 10 10 11 13 15 17 17 17 18 18 17
37 34 25 13 6 10 12 7 8 18 25 25 24 16 2 6 2 2 1 1 2 3 0 3 4 6 10 6 5 9 8 7 7 9 7 5 6 6 1 2 2 4 8 10 13 9 4 6 11 13 12 9 9 10 12 17 15 7 6 6 6 8 8 8 8 6 7 10 13 14 13 10 10 11 8 6 6 6 6 7 11 14 16 17 17 17 17 17
36 33 21 7 5 11 11 8 17 25 24 24 21 7 5 2 1 2 1 1 1 3 1 4 6 6 8 7 5 9 8 7 9 9 9 7 7 9 5 2 2 2 6 7 9 9 8 7 7 6 9 11 10 10 11 16 15 10 9 7 5 5 5 5 5 6 9 11 10 13 14 13 12 11 9 6 6 6 7 9 11 14 16 16 16 16 17 18
36 31 14 4 6 10 9 13 24 27 23 22 13 1 3 1 2 2 1 1 1 3 2 3 6 5 6 5 6 10 7 6 9 8 7 7 7 9 7 5 4 4 8 7 5 6 10 10 5 3 9 13 12 9 8 12 14 11 9 9 7 5 5 7 6 7 10 8 4 8 12 13 12 11 14 12 8 9 11 11 11 13 15 15 15 16 16 16
36 27 7 4 8 10 17 24 26 24 23 17 5 1 1 2 2 0 2 1 1 2 2 1 3 4 4 4 7 9 6 5 10 8 5 5 6 6 7 10 9 3 4 3 4 5 8 8 7 8 8 7 10 11 8 8 11 12 11 9 9 8 6 9 8 7 9 6 3 5 7 9 7 7 16 18 14 13 12 12 13 13 14 14 15 16 15 16
34 22 3 4 12 15 25 29 24 21 20 11 1 2 2 3 1 2 2 2 2 1 2 1 3 3 5 6 6 7 4 5 9 8 5 4 4 5 5 11 13 7 3 1 3 5 7 6 6 8 3 1 6 10 8 8 10 11 12 10 9 9 8 8 7 7 7 5 5 8 6 6 3 2 9 15 16 15 14 15 15 13 13 12 13 15 16 17
32 19 1 2 14 22 29 27 20 17 13 6 1 1 2 2 1 2 1 2 1 2 3 2 2 3 4 5 5 6 3 4 7 6 6 6 5 6 5 8 12 10 4 2 0 1 5 3 2 1 2 1 1 3 5 8 11 9 11 11 11 10 8 5 4 5 4 5 6 8 5 4 1 3 5 9 11 12 13 15 16 15 13 11 11 13 15 16
30 18 1 2 17 28 30 23 15 10 5 2 1 1 1 1 1 0 1 1 1 1 2 1 3 3 3 3 4 7 4 4 6 4 4 6 5 6 5 5 10 10 6 3 1 1 3 2 4 4 2 4 3 5 4 7 7 6 10 12 9 8 8 7 5 3 2 7 6 6 7 6 4 7 8 8 9 10 11 13 16 16 13 12 12 13 15 15
28 18 3 6 23 32 28 18 10 4 0 0 1 2 1 2 2 2 1 1 1 0 1 1 2 2 3 3 3 8 6 3 5 4 2 3 3 6 6 5 8 8 7 5 2 1 2 3 3 3 3 2 6 6 6 8 6 5 9 9 6 6 9 7 6 5 6 9 6 5 9 10 7 6 7 11 12 11 11 12 15 15 13 14 13 13 15 17
20 13 2 9 29 32 22 12 4 1 1 1 4 4 1 1 2 3 3 2 1 1 1 1 2 1 1 2 3 6 6 3 4 4 2 2 2 4 5 5 7 9 9 7 2 1 3 4 1 1 2 4 6 4 6 9 10 7 4 7 7 6 9 8 6 7 8 9 6 5 8 9 8 6 6 12 15 14 12 10 13 14 12 13 14 14 16 17
11 6 1 13 32 28 15 7 2 2 1 2 4 4 1 2 3 4 4 2 1 1 2 2 1 1 1 2 2 3 4 3 4 3 2 2 1 4 5 4 6 10 11 7 4 3 3 3 2 2 2 5 3 3 6 8 10 7 3 7 8 5 6 8 8 6 7 8 7 6 6 7 9 8 7 11 13 15 15 10 10 13 12 13 14 13 14 15
5 1 1 19 34 23 10 6 4 3 2 2 2 2 2 2 3 6 6 3 1 1 1 1 1 1 2 1 1 2 2 1 2 2 1 2 1 3 6 5 6 11 12 7 4 4 3 2 2 0 2 4 3 4 2 1 3 6 6 7 8 6 4 6 8 7 7 7 6 6 6 5 5 6 11 14 12 12 14 11 9 10 13 14 13 13 13 14
3 0 2 23 34 19 7 6 5 4 2 3 2 2 3 3 3 7 9 6 3 2 2 2 2 1 1 1 0 1 1 0 0 1 1 2 1 2 4 5 6 9 8 5 3 4 3 2 4 4 3 4 2 3 2 2 3 3 4 3 3 4 4 7 10 9 9 8 6 6 7 5 3 3 8 14 13 13 13 11 10 10 12 14 12 12 14 14
3 1 5 26 32 15 5 4 3 3 2 2 2 1 3 4 3 6 8 7 5 4 3 3 3 2 1 1 1 1 1 1 1 1 0 1 2 1 3 5 8 7 5 4 3 4 4 3 4 5 5 6 7 4 2 4 4 3 2 2 4 4 2 5 7 5 7 10 8 7 9 6 4 3 5 9 11 11 9 8 9 11 11 12 12 13 14 14
3 2 7 26 27 8 3 4 2 3 3 2 2 1 2 3 4 5 6 6 5 3 3 3 3 2 2 2 1 0 1 1 2 0 1 1 1 1 1 4 8 7 4 4 4 4 5 3 3 5 5 7 7 1 3 1 4 5 1 3 3 2 3 4 5 3 3 8 8 8 9 5 5 6 8 10 9 8 8 8 9 10 8 8 9 11 12 12
3 3 4 21 24 9 3 4 2 2 3 3 3 4 4 4 5 6 6 6 5 3 2 3 3 3 3 3 2 1 2 2 2 1 1 2 1 0 1 2 6 6 4 4 5 4 3 1 2 3 3 5 5 4 4 3 3 2 0 2 2 4 7 6 5 3 4 6 8 10 8 4 3 5 7 10 9 9 10 9 8 9 9 8 7 5 7 7
3 1 2 12 21 14 5 3 2 2 3 4 4 5 4 3 5 6 5 5 6 3 1 3 3 3 4 4 2 1 2 2 1 1 1 2 1 1 1 2 4 5 4 6 7 5 3 2 2 3 4 6 6 4 3 1 2 2 1 2 4 5 7 5 2 3 4 5 8 10 7 3 3 3 5 9 10 10 7 5 6 8 9 9 7 5 5 5
2 2 2 5 9 9 5 4 4 3 3 3 3 4 5 3 3 5 4 4 6 5 3 4 4 3 5 6 3 1 2 2 2 2 2 2 2 1 1 3 4 6 5 6 8 4 3 3 4 6 6 6 3 1 1 3 5 4 5 7 6 4 4 3 2 3 2 3 6 7 5 6 6 5 6 8 9 9 6 4 6 7 7 7 7 6 7 7
1 1 3 3 3 4 4 5 6 4 2 2 1 3 5 5 3 4 4 4 5 5 2 4 6 5 5 6 4 2 2 3 3 3 3 3 2 2 3 4 6 6 4 4 6 4 2 4 6 8 10 11 10 7 5 6 7 7 9 11 9 6 4 3 5 5 4 5 6 4 4 8 8 7 7 7 6 6 6 5 4 3 4 5 5 6 8 8
2 1 1 2 2 3 4 4 6 5 3 1 1 2 4 5 5 4 3 3 4 4 2 2 5 7 5 4 3 2 3 3 3 2 2 2 3 4 5 5 6 5 3 3 4 3 3 4 5 8 11 13 12 9 7 8 9 9 10 12 12 10 8 7 9 10 8 7 6 8 10 9 7 8 10 10 10 10 11 10 8 6 6 7 6 7 9 9
2 2 1 1 1 1 2 4 5 5 3 1 2 3 3 4 5 3 2 2 2 4 3 2 4 6 5 3 2 2 2 3 2 2 3 4 4 4 5 5 4 2 3 4 3 2 3 4 4 7 11 13 12 10 9 9 11 11 11 12 12 12 12 11 11 12 12 12 11 12 17 15 9 8 10 11 11 11 11 10 9 8 8 7 8 10 11 13
2 2 1 1 1 1 1 3 4 3 3 2 1 3 3 3 5 4 3 2 0 3 3 3 5 7 6 2 2 4 3 3 4 4 4 6 5 3 3 4 3 2 3 4 3 2 2 3 5 7 9 10 10 9 10 10 11 12 12 13 13 13 12 10 9 9 9 10 12 14 16 13 7 5 9 12 11 9 9 8 8 7 7 7 9 11 13 14
2 2 2 1 2 3 2 3 3 1 2 2 2 3 3 3 5 6 4 2 1 1 3 5 7 7 5 3 4 5 4 5 7 9 8 8 8 6 4 4 4 3 4 4 4 2 2 3 5 6 6 7 5 5 7 7 8 12 15 15 13 11 8 5 4 4 5 5 8 9 9 6 5 9 12 13 11 10 9 7 7 7 8 9 10 12 13 14
2 2 2 1 2 4 3 3 3 1 2 2 2 3 3 2 5 7 4 0 2 2 2 5 7 6 5 5 4 4 6 8 11 11 10 10 11 10 9 10 10 9 7 6 5 4 4 4 4 3 5 6 4 3 4 4 7 10 10 9 11 10 6 3 3 3 6 5 5 6 4 6 10 11 13 13 13 12 8 5 7 8 10 11 12 13 14 15
Wind_Direction
10 6 4 3 2 2 1 360 358 357 355 354 353 353 352 351 349 346 343 339 335 326 319 316 313 312 311 315 316 315 316 307 297 274 250 265 272 247 239 214 182 164 149 149 148 149 152 158 158 158 161 161 181 189 193 214 210 196 201 232 245 231 238 219 189 33 1 218 161 167 176 163 150 160 145 140 140 137 147 129 112 98 87 121 131 139 147 152
12 9 6 4 3 2 0 359 358 356 354 353 352 351 351 350 347 345 342 338 333 324 318 314 312 313 310 314 318 319 314 300 285 265 265 284 293 258 230 205 175 161 152 156 159 156 156 163 162 160 167 169 178 184 188 190 190 203 201 225 236 217 210 251 286 331 340 332 165 176 182 175 162 157 161 161 149 147 147 136 127 107 107 123 134 143 148 155
12 10 7 5 4 3 1 359 357 356 354 353 352 350 349 349 347 346 341 335 332 325 317 314 314 314 312 314 320 328 311 300 285 257 297 350 328 270 224 195 174 166 162 168 166 163 162 160 160 159 164 176 182 187 191 187 193 205 210 233 238 238 245 274 280 279 306 310 172 180 178 178 165 156 175 171 158 167 168 156 152 140 137 141 145 148 152 158
12 10 8 5 3 3 1 359 357 356 353 352 351 349 348 348 348 346 341 336 334 328 319 314 314 313 314 323 326 340 304 282 290 242 357 355 345 303 212 188 174 172 169 168 164 160 153 150 155 155 157 171 178 190 199 195 191 192 209 231 236 244 241 283 302 292 311 267 178 168 173 183 170 166 183 167 164 191 195 179 170 158 150 151 153 154 157 161
11 10 8 5 2 1 0 358 357 355 353 351 350 348 347 346 347 347 343 340 339 332 322 312 311 312 316 336 349 348 292 253 82 13 347 331 334 320 199 178 174 174 164 161 156 144 143 146 151 152 162 164 166 190 210 204 202 209 223 240 250 261 263 343 348 13 17 352 162 164 181 179 166 181 190 180 186 205 202 189 171 157 153 156 159 158 162 165
11 9 7 5 2 360 360 358 355 355 353 350 349 348 346 344 344 345 344 342 340 332 322 312 310 313 319 353 26 359 269 287 2 343 339 329 336 317 181 168 173 172 157 155 151 147 150 151 156 160 172 168 178 189 198 199 207 229 235 246 248 256 270 297 312 317 343 340 242 193 192 168 169 195 198 199 209 179 154 170 157 153 155 156 158 161 166 169
10 8 7 5 2 359 358 357 355 354 353 350 349 348 345 342 341 341 339 337 333 326 319 313 312 314 341 31 110 60 262 281 334 352 349 336 338 179 164 163 171 166 155 156 152 156 156 161 170 164 169 172 192 196 171 191 209 234 247 259 254 259 266 277 293 297 309 302 289 250 195 185 191 200 194 208 223 96 126 149 145 148 152 155 159 166 170 171
9 8 6 4 1 358 356 355 354 353 353 351 349 347 342 339 336 334 333 331 326 320 319 317 318 321 66 74 155 316 257 266 348 14 17 12 357 153 153 160 170 165 162 164 161 164 160 168 174 160 177 180 183 191 180 188 210 230 241 263 261 263 271 280 285 287 294 288 291 260 215 210 204 193 191 207 209 135 137 140 141 146 152 160 164 167 170 172
8 7 6 3 1 357 354 354 353 353 353 351 350 345 338 335 331 329 330 328 322 317 325 338 343 88 115 102 294 306 232 123 46 31 27 25 68 156 154 161 170 166 167 169 165 167 164 172 176 166 185 180 168 184 190 193 209 226 233 255 270 275 279 285 283 281 285 277 283 269 245 234 207 191 210 204 180 141 141 144 146 150 157 165 168 169 171 171
8 7 5 3 360 357 354 353 352 353 352 352 350 340 333 332 326 327 329 325 320 323 39 67 65 91 110 135 285 316 202 151 68 19 14 20 79 161 164 166 170 169 169 171 171 171 173 176 172 161 177 172 176 183 190 202 220 217 233 257 266 276 278 277 275 272 278 273 267 258 257 252 197 192 230 185 158 145 144 151 154 157 163 167 170 171 173 174
7 6 4 2 359 357 354 352 352 352 351 352 346 335 329 327 325 328 329 324 329 61 74 76 80 144 140 132 271 279 224 215 303 339 343 353 84 175 180 173 170 172 169 171 178 178 177 168 156 146 173 165 174 188 198 213 259 256 262 274 265 275 278 269 264 262 262 264 256 241 258 260 185 204 230 159 151 153 150 156 162 165 168 169 171 171 174 177
6 5 4 1 359 357 354 352 351 350 352 350 341 332 326 324 329 334 333 347 73 57 59 76 131 176 170 193 242 254 278 286 295 327 337 329 267 199 191 180 175 176 172 173 182 182 176 166 167 173 168 151 161 182 215 214 235 257 275 285 281 289 282 267 254 244 227 242 243 226 260 247 191 214 203 149 155 158 154 160 165 169 170 170 171 171 176 178
4 4 3 1 359 358 355 352 351 351 351 346 339 331 325 326 337 347 6 68 50 22 38 30 211 179 176 248 253 276 318 312 306 358 1 351 273 204 198 186 182 184 181 177 177 180 176 177 184 187 161 168 168 115 252 203 211 238 253 267 286 293 279 263 237 219 210 225 200 191 264 236 198 208 169 148 159 158 158 165 168 170 170 173 174 173 178 178
2 2 2 0 359 359 357 353 352 353 350 345 339 331 328 335 354 26 75 47 19 359 342 347 184 164 200 266 267 313 342 346 18 11 360 4 82 180 194 186 185 185 182 174 166 172 178 185 201 222 211 243 200 327 288 183 191 213 219 239 259 268 261 200 140 195 197 202 181 190 258 258 229 191 162 157 162 161 165 169 170 173 172 174 177 177 179 181
1 1 1 0 359 359 357 354 355 355 353 348 338 333 336 354 25 98 80 25 9 360 359 113 155 165 271 270 281 326 355 0 336 344 344 15 82 162 173 177 179 165 159 161 165 166 160 173 193 227 214 275 278 249 233 176 190 197 196 218 218 233 257 240 178 207 212 193 181 197 244 263 269 178 162 165 167 167 170 172 173 176 176 177 179 180 181 183
360 360 360 359 358 359 357 356 359 359 359 351 339 341 353 10 68 127 58 14 6 29 84 126 146 182 277 326 332 318 4 328 316 329 324 294 297 180 159 165 166 151 144 136 161 165 145 164 182 228 225 234 231 221 214 213 214 201 210 223 196 204 245 253 211 224 229 222 192 206 238 265 272 160 164 170 172 174 172 173 177 178 179 179 180 182 182 182
359 359 358 358 358 358 357 357 1 2 6 357 346 2 8 16 113 134 26 9 3 105 138 203 164 204 235 349 342 305 322 316 312 316 303 294 275 182 151 157 158 152 141 105 149 168 168 168 170 210 217 229 221 197 214 220 209 194 209 222 197 203 233 246 240 221 214 219 211 214 235 255 264 142 167 176 175 178 177 177 179 179 181 181 182 184 183 184
358 358 357 357 357 356 357 359 3 7 12 4 354 16 18 29 136 146 1 358 343 191 189 207 194 200 246 331 329 304 307 307 303 300 298 304 216 172 155 157 154 151 151 120 147 170 180 178 179 200 204 215 212 201 209 214 208 200 198 209 207 214 233 237 233 176 154 207 216 216 233 248 253 165 173 184 181 184 185 182 181 179 181 181 183 187 186 188
358 357 356 356 355 356 357 360 7 11 17 15 4 1 21 32 156 191 349 347 349 171 316 314 358 28 287 311 311 303 309 310 304 292 290 94 149 161 151 153 154 155 162 162 168 172 173 175 187 204 209 208 206 206 208 207 205 204 200 212 214 215 232 235 234 267 303 260 237 228 238 246 246 219 189 188 189 194 192 181 180 181 181 183 186 189 190 192
358 357 355 354 353 355 358 2 13 15 21 25 21 1 18 18 328 303 349 340 355 59 303 292 329 263 284 304 305 318 328 333 334 299 251 119 142 146 138 147 156 165 175 172 168 165 174 187 201 211 212 204 200 203 212 249 359 209 199 216 222 224 234 228 219 261 282 276 254 237 249 253 249 230 201 188 190 198 197 187 184 183 183 186 189 191 192 194
357 357 355 353 352 356 2 8 18 19 26 31 36 55 37 21 5 327 338 324 267 255 270 270 275 256 275 290 299 325 343 340 352 6 9 129 147 147 142 152 161 178 186 165 139 141 178 205 216 215 205 177 186 197 211 228 242 251 213 213 224 225 238 250 258 277 286 277 259 255 270 262 253 239 205 182 188 200 201 194 189 187 187 189 191 193 193 190
357 358 355 352 353 359 4 14 19 19 30 39 47 62 90 67 15 306 296 308 290 274 258 268 273 257 273 278 289 322 319 320 357 22 24 124 168 172 161 167 176 179 173 158 140 157 193 221 223 205 165 141 179 196 206 219 231 243 236 227 230 214 246 268 256 271 272 266 268 275 277 269 263 244 206 187 193 206 206 199 192 188 188 191 192 192 189 186
356 358 356 352 355 0 1 22 21 16 29 44 51 57 89 36 347 308 237 287 296 297 275 278 285 282 299 308 330 338 322 347 357 360 11 139 186 188 173 180 183 171 169 177 181 180 195 228 218 169 152 185 193 193 203 214 225 232 231 230 225 193 222 236 165 21 288 257 276 288 280 272 268 235 211 202 203 210 208 203 199 194 193 194 192 190 188 186
356 358 356 354 357 360 0 32 19 13 22 51 62 44 7 327 333 307 218 264 296 295 277 286 288 294 325 329 322 325 339 343 276 339 360 143 180 184 191 186 182 178 181 190 194 196 206 218 168 151 169 198 198 195 201 209 221 225 230 232 226 212 227 249 349 343 306 246 256 279 272 266 250 237 237 208 204 216 206 196 200 201 199 196 195 196 193 191
355 358 357 355 360 4 11 49 14 5 6 77 59 355 337 330 330 232 223 268 277 285 218 260 249 332 331 316 292 320 312 222 235 296 325 312 307 237 197 185 194 196 185 189 198 210 221 173 143 163 182 196 203 207 202 206 223 226 228 230 232 235 239 263 297 312 294 239 224 271 259 255 218 229 245 193 189 214 201 196 205 201 195 194 198 199 197 196
354 358 357 355 3 12 29 78 0 355 360 83 341 333 333 335 324 190 218 319 136 29 39 347 348 353 346 340 327 316 229 225 317 283 301 322 304 241 203 178 200 210 178 180 203 226 219 180 159 178 186 190 203 215 207 203 221 237 225 216 222 237 244 252 264 272 268 257 312 315 262 262 219 219 230 185 194 213 201 203 210 201 195 199 201 199 196 196
353 357 356 354 3 15 36 341 346 357 10 325 328 331 335 335 269 175 218 264 148 27 4 347 339 345 351 341 331 332 184 329 325 320 359 344 309 220 215 184 189 208 160 166 218 213 193 184 176 189 193 192 203 214 203 194 214 243 210 183 203 225 235 240 250 250 260 287 289 270 256 276 265 225 184 185 209 216 206 211 212 202 200 203 204 201 198 197
352 356 354 351 360 14 29 3 353 3 335 326 330 334 337 342 155 166 267 264 280 37 20 346 329 333 336 325 340 19 346 328 332 342 348 342 328 194 221 202 195 199 168 182 218 168 178 198 185 185 203 208 209 214 195 189 213 238 164 167 193 213 225 231 243 247 257 279 267 244 213 255 265 225 134 177 218 224 214 214 211 206 207 206 205 204 200 199
350 354 352 346 357 10 7 7 1 342 337 337 338 338 341 134 152 183 297 230 20 65 107 330 342 334 327 319 6 26 354 353 3 323 333 343 351 320 228 222 217 203 182 200 223 193 185 206 187 185 210 219 210 212 192 189 209 215 154 180 193 205 216 221 234 245 248 250 251 236 205 227 266 250 182 175 221 231 217 213 211 209 212 208 205 205 201 199
349 353 350 343 359 0 352 350 340 340 343 343 341 343 53 149 185 255 205 223 20 49 307 338 353 326 333 346 22 15 6 11 353 328 347 7 6 17 343 292 306 224 197 207 227 233 238 205 187 193 211 212 201 206 196 196 202 179 167 187 183 196 209 214 224 232 243 245 245 236 213 212 256 260 228 190 210 222 200 205 214 212 214 211 206 205 200 198
348 352 351 347 9 2 355 338 336 342 344 342 344 356 145 148 287 205 185 183 75 26 7 11 3 343 358 19 17 2 5 7 357 0 13 10 20 30 12 328 347 250 212 215 223 225 234 218 188 191 206 196 193 202 200 203 201 187 192 199 181 185 193 207 203 198 233 245 235 226 212 212 239 252 246 216 187 201 213 216 215 211 214 212 207 204 201 199
348 352 355 18 18 9 360 337 336 340 340 342 349 70 173 246 209 200 308 183 170 15 34 12 358 357 359 15 18 359 352 6 8 15 22 22 40 41 31 21 350 244 210 214 202 194 223 220 182 173 197 189 192 199 194 202 205 202 201 197 198 200 190 208 203 200 229 241 226 208 202 217 240 247 254 253 219 213 225 226 225 217 212 210 206 203 202 200
349 354 7 47 15 3 353 343 337 335 335 341 358 150 256 219 195 72 9 16 47 29 33 331 345 0 360 20 22 357 349 24 15 12 27 32 46 55 48 29 7 303 231 221 186 187 212 209 192 195 194 190 200 201 194 194 200 204 202 197 201 199 202 214 210 216 233 237 217 175 187 229 249 235 240 249 245 232 224 225 232 225 210 206 204 201 200 197
348 355 36 48 13 358 348 342 334 329 331 337 12 179 225 210 178 84 71 18 38 31 9 344 325 357 37 43 22 359 10 42 24 20 35 37 36 35 23 18 14 356 316 274 193 204 214 209 199 194 188 317 217 216 220 194 191 205 203 205 210 204 211 218 209 221 239 249 208 167 172 225 220 179 223 235 242 237 223 220 227 226 214 205 201 199 199 198
346 353 112 52 6 353 344 338 327 325 326 327 3 174 204 195 129 123 96 10 348 352 3 28 354 12 51 39 19 19 21 25 23 28 45 52 44 25 5 359 6 3 338 276 174 225 234 237 25 323 274 300 210 294 274 206 200 204 195 208 219 210 210 217 226 232 245 270 227 187 205 246 263 316 261 241 245 238 226 219 219 224 214 198 197 198 199 200
345 356 76 24 354 346 342 335 321 321 319 302 27 101 120 76 55 150 66 18 301 351 337 11 34 30 36 20 17 23 14 10 15 16 56 64 55 32 14 350 355 3 8 339 328 15 245 226 26 354 209 142 41 347 292 235 218 182 191 212 209 191 206 223 239 232 239 260 237 196 227 246 260 274 252 235 246 241 232 223 220 224 207 187 195 199 198 200
346 354 18 2 348 344 343 336 315 307 258 241 97 104 89 65 25 331 6 341 280 45 306 358 44 23 18 22 16 13 3 358 9 7 51 60 53 33 13 349 348 354 4 349 314 35 303 265 349 349 173 131 343 311 259 253 244 188 200 201 163 174 210 226 237 222 223 244 232 195 224 232 231 238 219 217 233 240 234 224 224 223 200 189 201 199 198 199
339 339 354 358 347 345 347 343 322 158 123 92 100 99 80 68 39 347 341 330 255 113 93 78 49 21 26 15 9 12 1 354 12 14 28 25 49 45 20 351 343 344 351 343 305 10 322 274 244 104 240 310 331 289 239 229 224 234 220 174 164 200 206 200 224 230 227 239 239 212 218 229 230 220 206 216 227 240 239 225 227 223 199 196 207 201 197 198
334 330 140 353 347 349 355 360 45 107 81 93 102 94 68 76 54 7 345 328 200 92 89 112 47 40 86 16 359 16 4 7 12 355 3 9 27 60 36 0 336 340 346 345 324 333 326 273 200 121 306 309 312 227 225 207 206 227 231 184 194 219 209 199 211 225 229 238 245 225 210 227 234 227 233 230 226 235 238 227 226 223 208 204 207 203 197 195
344 338 111 351 349 352 8 35 62 51 62 88 84 71 48 66 48 9 1 6 29 45 58 126 126 72 94 63 357 16 8 15 6 345 9 15 35 76 38 5 337 337 336 337 339 338 334 283 257 354 299 265 216 174 181 145 192 211 217 210 205 206 210 210 213 218 228 237 241 236 231 231 217 211 231 236 230 230 234 232 227 220 214 214 209 201 194 192
337 7 28 352 351 354 14 51 53 27 74 88 55 50 25 28 31 7 7 15 33 46 39 82 104 77 86 109 72 24 345 225 24 346 2 16 19 78 36 0 334 334 331 327 353 1 352 314 290 306 288 235 193 108 91 339 311 255 239 241 233 231 222 216 217 212 220 236 237 241 251 242 195 189 220 227 228 227 226 228 231 225 219 219 214 203 196 194
343 12 353 353 354 360 34 64 53 17 74 68 25 347 344 11 26 6 8 17 34 45 37 58 70 51 61 33 21 32 333 228 178 297 321 31 1 11 38 0 331 329 332 322 338 345 327 301 282 284 276 267 275 303 321 269 244 216 243 339 343 319 269 230 231 213 216 229 228 243 259 248 205 222 244 240 237 239 242 241 239 236 227 219 215 208 201 199
5 315 344 357 0 6 65 66 66 35 55 18 346 336 351 25 33 19 21 22 24 30 33 53 47 31 53 18 334 263 321 268 192 242 309 272 315 335 54 350 337 336 339 332 336 332 311 275 271 282 275 274 272 259 73 104 157 150 131 14 10 358 352 295 271 300 253 225 214 231 249 242 195 209 243 254 249 247 262 265 253 252 254 241 227 214 204 201
344 271 317 5 19 48 92 54 49 48 42 5 21 48 45 53 42 28 34 31 20 10 24 49 35 18 26 357 332 345 347 322 207 205 287 275 267 136 211 326 342 345 346 351 356 341 316 271 288 286 236 217 206 163 134 116 96 94 72 19 5 349 341 306 252 260 265 229 221 232 241 235 185 186 227 249 253 247 240 239 244 253 262 267 263 240 218 208
322 248 252 5 29 52 75 50 38 56 38 17 40 42 28 58 49 24 35 46 27 8 11 42 31 27 22 354 331 56 19 355 309 240 266 286 254 206 231 266 333 336 330 345 351 331 293 284 287 274 228 203 190 182 191 167 11 343 277 303 325 344 343 328 260 227 238 227 228 237 246 236 182 180 220 236 252 259 245 214 224 239 246 254 264 259 233 217
331 25 327 347 31 54 76 65 37 39 42 26 48 43 21 37 42 14 28 51 27 18 43 49 31 24 21 7 351 357 6 1 343 305 272 274 267 272 258 250 298 315 308 333 346 327 277 269 256 258 262 262 281 342 334 313 308 299 304 306 312 335 337 323 257 230 289 313 248 240 263 270 249 227 227 232 245 258 255 214 214 227 233 235 242 238 222 209
24 31 1 340 5 43 62 55 31 22 23 11 41 49 24 23 22 13 28 39 20 15 57 66 46 38 22 8 351 320 333 338 321 298 271 260 274 325 313 276 280 290 293 329 341 323 275 264 257 259 262 269 287 301 294 290 286 285 296 299 302 309 296 256 240 255 319 314 265 271 299 273 262 255 259 277 288 281 280 270 251 259 262 255 261 258 241 223
35 94 26 324 339 23 24 19 14 6 355 11 73 57 30 29 30 23 18 13 17 24 53 87 49 37 21 358 329 296 316 317 293 282 285 287 299 323 323 296 278 274 274 308 337 329 280 270 270 273 271 270 277 282 277 273 271 271 278 284 291 292 276 256 253 258 267 259 264 307 303 282 280 287 295 320 333 320 311 308 314 316 293 283 285 277 266 252
42 89 70 336 34 41 354 344 348 352 358 55 78 53 40 32 26 14 341 327 18 44 32 13 18 10 0 346 297 271 295 300 281 290 308 300 299 312 312 298 276 242 254 286 332 344 280 277 291 291 283 278 274 267 260 260 266 271 270 270 278 282 275 269 264 260 257 247 245 268 279 279 284 290 304 320 318 307 304 303 308 304 291 284 272 259 255 250
44 61 21 356 40 80 310 345 346 359 30 38 52 43 30 21 20 4 318 286 72 63 28 3 355 344 335 322 250 253 272 290 280 279 288 292 292 290 287 285 272 219 248 283 317 334 275 293 325 319 295 280 272 257 246 248 260 271 273 271 274 275 268 260 264 272 273 259 247 249 259 271 288 319 318 310 300 297 298 301 308 308 306 301 280 267 257 248
38 26 357 339 37 38 25 12 356 351 45 35 30 24 5 6 7 347 313 238 217 358 356 344 338 330 318 285 247 252 269 282 276 272 273 275 275 269 257 261 267 269 270 274 281 279 263 293 318 317 290 280 276 249 238 245 261 268 268 266 263 261 256 238 245 304 323 298 266 246 246 272 327 339 323 308 302 302 301 311 322 317 314 307 290 280 271 259
45 43 356 317 34 35 17 11 6 11 47 19 353 349 332 338 348 339 335 201 252 285 321 325 323 319 300 285 282 295 302 294 284 279 274 265 260 260 255 251 255 261 264 265 267 261 252 278 307 300 275 277 276 261 260 259 262 263 263 257 241 231 230 203 178 1 356 334 277 255 274 328 334 328 321 313 308 304 300 314 329 323 315 306 294 287 280 270